Location: Bondula
(6.3703°N, 10.6756°W)
Time: 12:36:51
(UTC+00:00)

CENTAUR R/B - Pass Details

Date: 22 October 2019
Orbit: 781 x 1407 km, 63.4° (Epoch: 10 November)

Event Time Altitude Azimuth Distance (km) Brightness Sun altitude
Rises 05:50:08 0° 338° (NNW) 4,412 5.6 -10.3°
Reaches altitude 10° 05:53:01 10° 339° (NNW) 3,468 5.1 -9.6°
Maximum altitude 06:01:43 83° 67° (ENE) 1,409 3.4 -7.4°
Drops below altitude 10° 06:10:09 10° 155° (SSE) 3,366 5.8 -5.4°
Sets 06:12:54 0° 155° (SSE) 4,278 6.4 -4.7°
